Regional Weather Roundup
Issued by NWS

Home | Current Version | Previous Version | Graphics & Text | Print | Product List | Glossary On
Versions: 1 2 3 4 5 6 7 8 9 10 11 12 13 14 15 16 17 18 19 20 21 22 23 24 25 26 27 28 29 30 31 32 33 34 35 36 37 38 39 40 41 42 43 44 45 46 47 48 49 50
000
ASUS43 KOAX 282110
RWRNE

WEATHER ROUNDUP FOR NEBRASKA
NATIONAL WEATHER SERVICE OMAHA NE
300 PM CST FRI NOV 28 2014

NOTES: SATELLITE DATA IS BEING USED TO AUGMENT CLOUD COVER ABOVE
       12000 FEET.
       "FAIR" INDICATES FEW OR NO CLOUDS BELOW 12,000 FEET WITH NO
       SIGNIFICANT WEATHER AND/OR OBSTRUCTIONS TO VISIBILITY.

  * THESE STATIONS DO NOT REPORT WEATHER SUCH AS RAIN...SNOW OR FOG.

NEZ001>004-019>022-054>056-282200-
NEBRASKA PANHANDLE

CITY           SKY/WX    TMP DP  RH WIND       PRES   REMARKS
SCOTTSBLUFF    CLOUDY    65  27  23 NW9       29.72F
ALLIANCE       PTSUNNY   65  18  16 W21       29.70F
CHADRON        MOSUNNY  N/A N/A N/A W16G24    29.64F
KIMBALL        CLOUDY    63  18  18 W14       29.77S
SIDNEY         CLOUDY    64  20  18 W14       29.77F
$$

NEZ057>060-069>072-079>082-282200-
SOUTHWEST NEBRASKA

CITY           SKY/WX    TMP DP  RH WIND       PRES   REMARKS
NORTH PLATTE   MOSUNNY   71  19  14 W18G29    29.69F
IMPERIAL       PTSUNNY   72  11   9 W14G26    29.74F
LEXINGTON      SUNNY     74  18  12 W24       29.69S
MCCOOK         MOSUNNY   78  17  10 W12       29.72F
OGALLALA       PTSUNNY   62  30  29 W10       29.73S
$$

NEZ005>010-023>029-035>040-094-282200-
NORTH CENTRAL NEBRASKA

CITY           SKY/WX    TMP DP  RH WIND       PRES   REMARKS
VALENTINE      SUNNY     65  27  23 W9        29.63F
AINSWORTH      SUNNY     64  27  25 W13       29.64R
BROKEN BOW     MOSUNNY   72  23  16 NW15G25   29.65F
O`NEILL        SUNNY     66  31  26 NW13      29.62S
ORD            MOSUNNY   72  21  14 W16G30    29.62F
THEDFORD       MOSUNNY   68  24  19 W15G25    29.67S
$$

NEZ041-046>049-061>064-073>077-083>087-282200-
SOUTH CENTRAL NEBRASKA

CITY           SKY/WX    TMP DP  RH WIND       PRES   REMARKS
GRAND ISLAND   MOSUNNY   70  26  19 SW15      29.66F
AURORA         MOSUNNY   69  26  20 W10G17    29.66F
HASTINGS       MOSUNNY   74  21  13 W16       29.67F
HEBRON         SUNNY     65  26  23 SW13      29.71S
HOLDREGE       SUNNY     74  19  12 W16       29.69F
KEARNEY *      PTSUNNY   72  27  18 SW9       29.70S
YORK           SUNNY     66  28  24 SW12      29.66F
$$

NEZ011>018-030>034-042>045-282200-
NORTHEAST NEBRASKA

CITY           SKY/WX    TMP DP  RH WIND       PRES   REMARKS
NORFOLK        SUNNY     62  31  31 S9        29.61F
ALBION         SUNNY     70  23  17 W8        29.62S
BLAIR          SUNNY     55  31  40 S13       29.68F
COLUMBUS *     SUNNY     63  32  31 S6        29.66F
FREMONT        SUNNY     55  29  37 S10       29.68F
TEKAMAH        SUNNY     53  31  42 S13       29.68F
WAYNE          SUNNY     53  31  43 S13       29.64F
$$

NEZ050>053-065>068-078-088>093-282200-
SOUTHEAST NEBRASKA

CITY           SKY/WX    TMP DP  RH WIND       PRES   REMARKS
LINCOLN        MOSUNNY   61  30  31 S14       29.69F
OMAHA EPPLEY   MOSUNNY   51  31  46 S17       29.71F
BEATRICE       MOSUNNY   59  32  35 S10       29.72S
FALLS CITY     MOSUNNY   59  32  36 S15       29.75F
NEBRASKA CITY  MOSUNNY   56  25  31 S9        29.72F
PLATTSMOUTH    MOSUNNY   54  29  38 SE13      29.71F
$$

NEZ044-045-051>053-067-282200-
OMAHA AREA

CITY           SKY/WX    TMP DP  RH WIND       PRES   REMARKS
OMAHA EPPLEY   MOSUNNY   51  31  46 S17       29.71F
BLAIR          SUNNY     55  31  40 S13       29.68F
FREMONT        SUNNY     55  29  37 S10       29.68F
MILLARD        SUNNY     55  32  42 SE13      29.68F
OFFUTT AFB     SUNNY     53  31  42 SE13      29.70F
PLATTSMOUTH    MOSUNNY   54  29  38 SE13      29.71F
WAHOO          FAIR      55  28  35 S12       29.67F
$$


USA.gov is the U.S. government's official web portal to all federal, state and local government web resources and services.